Location: ASU Dark Sky Observatory
(36.2504°N, 81.4125°W)
Time: 04:02:19
(UTC-04:00)

Daily predictions for brighter satellites

Satellite Brightness Start Highest point End
(mag) Time Altitude Azimuth Time Altitude Azimuth Time Altitude Azimuth
SL-16 R/B 4.2 00:11:47 23° N 00:11:47 23° N 00:14:01 10° N
ATLAS CENTAUR R/B 4.5 01:19:54 69° NW 01:20:15 69° NW 01:44:21 10° NE
Cosmos 2219 Rocket 4.5 02:37:37 18° NNW 02:37:37 18° NNW 02:39:17 10° N
ATLAS 3B R/B 3.7 02:40:31 45° N 02:40:31 45° N 02:45:50 10° NNE
Cosmos 2333 Rocket 4.3 02:45:46 21° N 02:45:46 21° N 02:47:55 10° N
SL-16 R/B 4.1 02:46:25 25° NNE 02:46:25 25° NNE 02:48:44 10° NNE
Cosmos 2237 Rocket 4.3 02:52:23 21° N 02:52:23 21° N 02:54:31 10° N
Resurs 1-4 Rocket 4.3 03:04:48 10° NE 03:07:28 18° ENE 03:07:28 18° ENE
USA 238 DEB 4.3 03:28:04 50° NNW 03:28:04 50° NNW 03:33:50 10° NNE
ATLAS 5 CENTAUR R/B 4.5 03:27:55 12° E 03:27:55 12° E 03:28:59 10° E
USA 238 4.3 03:28:10 50° NNW 03:28:10 50° NNW 03:33:56 10° NNE
USA 234 3.5 03:24:24 10° NE 03:29:55 66° NE 03:29:55 66° NE
ATLAS CENTAUR R/B 4.4 03:37:25 10° N 03:39:54 15° NE 03:42:18 10° E
NOSS 3-2 (A) 3.7 03:44:53 64° NE 03:44:53 64° NE 03:50:21 10° NNE
Cosmos 1943 3.7 03:57:59 55° E 03:57:59 55° E 04:03:02 10° NNE
NOSS 3-2 (C) 3.5 03:59:51 78° NNE 03:59:51 78° NNE 04:05:56 10° NNE
Cosmos 883 Rocket 4.5 04:04:59 70° ESE 04:05:18 71° E 04:11:24 10° N
CENTAUR R/B 4.1 04:04:39 20° SE 04:06:36 24° ESE 04:11:36 10° ENE
CZ-2D R/B 2.4 04:02:09 10° NNE 04:06:51 65° ENE 04:06:51 65° ENE
Cosmos 2369 Rocket 3.1 04:06:30 10° N 04:11:54 46° ENE 04:17:16 10° SE
Cosmos 2315 Rocket 4.4 04:11:00 44° SE 04:12:40 57° E 04:18:46 10° NNE
CZ-4C R/B 3.5 04:13:58 27° NW 04:13:58 27° NW 04:18:36 10° NNE
Cosmos 1455 3.8 04:19:25 33° ENE 04:19:25 33° ENE 04:22:28 10° NNE
Okean O Rocket 3.3 04:15:24 10° NE 04:19:15 28° E 04:20:19 25° ESE
SL-16 R/B 4.3 04:28:18 13° NW 04:28:18 13° NW 04:30:25 10° NNW
Cosmos 494 Rocket 3.9 04:29:15 79° NW 04:29:15 79° NW 04:34:23 10° NNE
SL-16 R/B 2.4 04:34:24 62° WSW 04:34:48 63° WSW 04:40:56 10° NNW
CZ-3A R/B 4.1 04:32:23 40° WSW 04:37:07 73° NW 05:53:09 10° ENE
IRS-1D 4.0 04:32:40 10° N 04:37:09 46° NW 04:37:09 46° NW
Cosmos 389 Rocket 4.1 04:39:50 29° ESE 04:40:11 29° E 04:43:15 10° NNE
CZ-2D R/B 3.5 04:37:42 10° NNE 04:42:05 85° E 04:42:05 85° E
Cosmos 1943 Rocket 3.8 04:37:23 10° N 04:42:33 35° ENE 04:47:39 10° SE
Resurs 1-4 Rocket 2.5 04:43:32 10° N 04:48:31 45° WNW 04:48:33 45° WNW
PSLV R/B 4.5 04:50:52 39° N 04:50:52 39° N 04:53:47 10° ENE
Cosmos 2242 Rocket 4.0 04:51:13 50° WNW 04:51:13 50° WNW 04:55:14 10° N
ARIANE 5 R/B 3.5 04:46:39 10° N 04:50:57 32° WNW 04:50:57 32° WNW
CZ-4B R/B 3.9 04:48:51 10° NNE 04:52:18 38° E 04:53:37 28° SE
Meteor 2-11 Rocket 4.3 04:50:17 40° SSW 04:52:36 80° W 04:58:42 10° N
OAO 3 Copernicus 4.2 04:54:53 61° WSW 04:55:43 77° S 05:00:46 10° E
Cosmos 1331 Rocket 4.0 04:51:26 10° NNW 04:56:35 55° WSW 04:57:15 51° SW
MOS 1-B 4.4 04:52:02 10° N 04:57:40 57° WNW 04:59:12 44° WSW
UNKNOWN OBJECT B 3.9 04:56:47 10° N 04:59:07 29° NW 04:59:07 29° NW
Cosmos 1825 4.4 04:58:01 10° NNE 05:01:15 26° ENE 05:04:27 10° SE
Cosmos 1869 3.1 05:00:55 70° SSW 05:01:22 85° W 05:05:21 10° N
Cosmos 1862 Rocket 3.4 05:05:10 51° SSW 05:06:13 77° W 05:10:36 10° N
ADEOS II 3.8 05:02:00 10° NE 05:06:37 30° E 05:11:12 10° SSE
Cosmos 1184 Rocket 3.0 05:05:27 10° N 05:08:53 74° E 05:10:14 34° SSE
Cosmos 1709 Rocket 4.2 05:04:18 10° NNW 05:10:25 51° W 05:13:53 25° SSW
ATLAS 5 CENTAUR R/B 1.9 05:09:30 44° WSW 05:10:51 63° NW 05:15:58 10° NNE
SeaSat 1 2.3 05:07:26 10° SSE 05:12:19 69° WSW 05:17:15 10° NNW
Atlas Centaur 2 3.8 05:12:47 12° S 05:14:35 15° SSE 05:17:28 10° ESE
Thor Agena Rocket 4.1 05:10:17 10° SSE 05:15:18 60° ENE 05:20:24 10° N
Pageos (A) 4.0 05:16:55 10° N 05:18:30 42° NNE 05:18:30 42° NNE
ATLAS CENTAUR R/B 1.3 05:15:16 10° NW 05:19:23 51° WSW 05:23:08 10° SSE
BREEZE-M DEB (TANK) 4.4 05:20:06 10° NNW 05:21:55 21° NNE 05:24:03 10° E
IRS-1C Rocket 4.2 05:19:15 10° N 05:24:23 55° WNW 05:27:17 25° SW
Cosmos 1892 4.1 05:21:15 10° NNW 05:23:20 22° WNW 05:23:20 22° WNW
CZ-3 R/B 4.1 04:40:19 10° W 05:27:08 53° SSW 05:37:23 10° SE
Okean 1-7 4.4 05:23:31 10° SSE 05:27:28 38° E 05:31:30 10° NNE
USA 32 4.3 05:22:24 10° S 05:27:36 70° E 05:32:49 10° N
Cosmos 2074 Rocket 3.9 05:25:35 10° N 05:31:49 82° W 05:38:02 10° S
Cosmos 2184 Rocket 4.0 05:27:09 10° N 05:33:35 83° W 05:39:55 10° S
Cosmos 2327 Rocket 4.4 05:28:08 10° N 05:34:14 81° W 05:40:23 10° S
COSMOS 2406 3.2 05:29:25 14° SSW 05:34:26 87° ESE 05:40:14 10° NNE
SL-27 R/B 2.5 05:33:34 29° SW 05:35:16 64° WNW 05:38:55 10° N
Cosmos 1733 Rocket 3.6 05:32:41 10° NNW 05:36:39 35° W 05:38:54 21° SW
Cosmos 1782 Rocket 4.1 05:38:22 10° N 05:42:40 60° E 05:46:56 10° SSE
CZ-2D R/B 3.9 05:44:28 10° NW 05:46:49 13° WNW 05:48:11 12° WNW
Cosmos 1455 4.2 05:54:29 13° WNW 05:54:45 13° WNW 05:56:34 10° NW
Cosmos 2221 Rocket 3.6 05:50:33 10° SSW 05:54:57 64° W 05:59:22 10° N
Okean O Rocket 2.9 05:51:56 10° NNW 05:55:27 23° WNW 05:57:46 16° WSW
Cosmos 2369 Rocket 3.3 05:51:27 10° NW 05:55:31 21° W 05:59:34 10° SSW
CZ-4B R/B 3.7 05:50:58 10° N 05:55:48 37° WNW 06:00:18 12° SW
CENTAUR R/B 2.8 05:51:52 16° SW 05:56:40 51° NW 06:03:17 10° NNE
Okean-O 2.6 05:52:41 10° N 05:57:07 72° WNW 06:01:31 10° SSW
ADEOS Rocket 3.6 05:51:58 10° N 05:59:42 78° WNW 06:07:24 10° SSW
Aureole 3 Rocket 4.1 05:52:12 10° SSW 06:00:06 71° W 06:05:43 10° N
Cosmos 2285 Rocket 4.0 05:55:38 10° NNW 06:02:03 76° WSW 06:08:24 10° S
Cosmos 1908 Rocket 4.0 05:59:20 10° NNW 06:03:27 40° W 06:07:31 10° SSW
Meteor PRIRODA 3.6 06:01:01 10° N 06:04:46 73° WNW 06:08:31 10° SSW
Cosmos 1703 Rocket 4.4 06:14:21 10° SW 06:18:18 31° WNW 06:22:17 10° NNW
Meteor 1-31 Rocket 2.7 06:15:44 10° N 06:19:32 80° WNW 06:23:20 10° SSW
Cosmos 407 Rocket 3.5 06:15:28 10° SSW 06:20:39 73° WNW 06:25:54 10° NNE
Cosmos 1943 Rocket 3.0 06:21:21 10° NW 06:26:07 28° WSW 06:30:51 10° SSW
Cosmos 2151 Rocket 4.1 06:23:04 10° N 06:27:27 67° E 06:31:48 10° SSE
PSLV R/B 4.5 06:25:12 10° WNW 06:28:26 38° N 06:31:37 10° E
Meteor 2-10 Rocket 3.9 06:26:25 10° S 06:32:15 87° W 06:38:02 10° N
